Vertical_Velocity
0 -1 2 -1 1 2 4 3 2 2 1 2 1 2 0 -2 0 0 3 2 -1 3
2 2 2 3 1 1 2 3 2 2 4 3 3 -1 2 2 2 1 0 0 1 1
2 2 3 3 2 2 3 3 3 1 1 3 1 4 4 -0 1 2 1 0 -1 -1
4 3 4 2 1 1 0 1 2 3 2 1 3 4 3 4 2 2 1 -1 -2 0
2 2 3 2 -0 2 3 4 2 1 1 2 2 2 3 2 2 4 1 -0 0 -1
3 1 -1 1 2 2 2 3 3 2 2 2 1 2 2 1 3 2 -1 0 2 1
1 2 3 2 1 0 1 1 -0 0 1 1 -0 1 2 1 4 -2 -2 4 1 -0
2 1 -1 -1 0 2 2 3 5 5 4 3 2 2 3 3 -1 4 1 2 1 1
10 3 3 6 8 13 6 4 2 2 1 0 -1 -0 -0 -1 0 -0 0 0 1 -0
2 6 9 7 5 5 6 6 -0 0 3 1 -2 -4 -2 -3 -0 -0 0 1 1 1
3 2 2 1 0 -0 2 5 3 1 0 -0 1 1 1 -1 -0 -1 -0 1 1 3
4 5 5 5 4 4 -0 1 3 2 2 2 2 2 1 2 -1 -2 -1 -1 -1 -1
9 3 3 3 3 2 -0 -1 -1 -0 -0 -0 -2 -1 -3 -2 2 -4 -3 -3 -4 -4
1 1 -0 0 2 1 -2 2 1 -0 -1 -2 -2 -4 -6 -4 -4 -3 -8 -9 -10 -8
Height
5600 5606 5610 5615 5620 5624 5630 5636 5639 5643 5647 5651 5655 5659 5663 5666 5670 5673 5677 5680 5683 5688
5585 5591 5595 5601 5606 5611 5616 5621 5626 5630 5635 5639 5643 5646 5651 5655 5658 5662 5665 5668 5671 5674
5573 5577 5581 5587 5592 5597 5602 5606 5611 5616 5620 5624 5628 5633 5637 5640 5644 5648 5650 5653 5655 5658
5560 5564 5569 5573 5578 5583 5588 5593 5598 5602 5606 5611 5615 5619 5623 5627 5630 5633 5635 5638 5640 5643
5546 5551 5555 5559 5563 5568 5573 5578 5584 5588 5593 5597 5602 5606 5610 5614 5616 5620 5622 5623 5625 5627
5531 5536 5541 5545 5550 5555 5560 5565 5569 5574 5579 5584 5588 5592 5596 5599 5602 5606 5608 5611 5613 5615
5517 5522 5527 5531 5536 5541 5546 5551 5555 5559 5564 5568 5573 5577 5581 5584 5588 5590 5593 5597 5599 5601
5503 5509 5514 5518 5522 5527 5532 5537 5541 5545 5549 5553 5557 5562 5565 5569 5571 5575 5578 5581 5583 5585
5490 5496 5501 5506 5511 5515 5518 5522 5527 5531 5534 5538 5542 5546 5550 5554 5557 5560 5563 5566 5567 5569
5476 5482 5487 5492 5497 5502 5506 5510 5514 5518 5521 5524 5528 5532 5536 5540 5543 5545 5548 5550 5552 5554
5463 5468 5474 5480 5484 5489 5493 5497 5500 5505 5509 5512 5515 5518 5521 5525 5528 5530 5532 5534 5536 5538
5451 5456 5462 5467 5471 5474 5478 5481 5485 5490 5494 5498 5501 5504 5508 5511 5513 5515 5517 5518 5519 5521
5439 5444 5448 5453 5457 5460 5464 5468 5473 5476 5480 5483 5486 5489 5493 5496 5498 5499 5500 5501 5502 5503
5426 5431 5435 5439 5443 5447 5451 5455 5459 5463 5466 5469 5472 5475 5477 5479 5480 5481 5481 5482 5483 5484